ATLAS 5 CENTAUR DEB, 44849

Orbit data source: Space-Track

ATLAS 5 CENTAUR DEB, 44849 is space debris in HEO originally from a launch on Wed, 17 Sep 2014 UTC launched from the Air Force Eastern Test Range (AFETR). Debris objects in space refer to the collection of defunct objects orbiting the Earth. Examples of debris include non-operational satellites, rocket bodies, and fragments generated from explosions, collisions, or faulty payload assembly.

Not visible in the next 10 days
Identifier
44849, 2014-055CH
Orbit
HEO
Country
Flag of USUS
Related business
Flag of USUnited Launch Alliance/Lockheed Martin (US)
Manufacturer
Unknown
Mission
Spacecraft
Bus & Motor
Unknown
Mass
Unknown
Launch date (UTC)
2014-09-17 (12 years ago)
Launch vehicle
Unknown
Launch site
Air Force Eastern Test Range (AFETR)
Object type
Payload
Rocket body
Debris
Shape & HBR
Unknown shape, 1.1 m
Radar Cross Section
Medium (>0.1 m² and <1 m²)

Expand to show TLE details & history
Last TLE update: 1 week ago

TLE from 1 week ago
0 ATLAS 5 CENTAUR DEB
1 44849U 14055CH  26227.15501595  .00000068  00000-0  00000+0 0  9997
2 44849  21.3014  79.9835 5054087 279.2660  29.0803  1.95518927 50154
Epoch: 2026-08-15T03:43Z
TLE epoch observation values (Epoch: 2026-08-15T03:43:13.378Z)
Latitude
0.00001°
Longitude
60.70067°
Altitude
12,239.321 km
Speed
5.298 km/s
True Right ascension
05h 20m 18s
True Declination
0° 00' 00"
Sunlit
Object was in daylight at epoch
Visualization orbit readout
Latitude
Unknown
Longitude
Unknown
Altitude
Unknown
Speed
Unknown
Apparent Right ascension
Unknown
Apparent Declination
Unknown
Sunlit
N/A
Visualization observer readout
Local Sidereal Time
00:14:23
Azimuth
Unknown
Elevation
Unknown
Doppler factor
Unknown
Orbital elements
Apogee altitude
34,293.974 km
Perigee altitude
6,984.395 km
Semi-major axis
27,017.321 km
Eccentricity
0.50541
Inclination
21.3014°
RAAN
79.9835°
Arg. of periapsis
279.266°
True anomaly
80.60655°
Mean anomaly
29.0803°
Eccentric anomaly
51.85377°
Mean motion
0.48874 °/min
Orbital period
736.58 mins
BSTAR
0
Loading maneuver chart data...
Computing Atmospheric mass density...

Documentation

Showing up to 5 results
|